Location: Sternwarte ZA, Rosenfeld-Brittheim
(48.2889°N, 8.6789°E)
Time: 05:20:49
(UTC+02:00)

ISS - Pass Details

Date: 25 May 2018
Orbit: 402 x 407 km, 51.6° (Epoch: 25 May)

Event Time Altitude Azimuth Distance (km) Brightness Sun altitude
Rises 23:35:05 0° 276° (W) 2,320 0.5 -16.6°
Reaches altitude 10° 23:37:13 10° 283° (WNW) 1,460 -0.5 -16.8°
Maximum altitude 23:40:22 44° 358° (N) 571 -2.7 -17.0°
Drops below altitude 10° 23:43:31 10° 72° (ENE) 1,459 -1.1 -17.2°
Enters shadow 23:44:38 - 77° (ENE) 1,901 -0.5 -17.3°
